This is the latest recevied weather packets stored in our database for station/object DL7MAP-13. If no packets are shown the sender has not sent any weather packets the latest 10 day(s).
| Time | Temp. | Humidity | Pressure | Rain* | Wind** | Luminosity | Snow |
|---|---|---|---|---|---|---|---|
| 1777973287 | 18.33° C | 72% | 1005.4 hPa | - | - | - | - |
| 1777972387 | 17.22° C | 74% | 1004.4 hPa | - | - | - | - |
| 1777971487 | 17.22° C | 75% | 1004.2 hPa | - | - | - | - |
| 1777970587 | 16.67° C | 76% | 1005.6 hPa | - | - | - | - |
| 1777969687 | 16.11° C | 78% | 1005 hPa | - | - | - | - |
| 1777968787 | 15.56° C | 78% | 1004.8 hPa | - | - | - | - |
| 1777967887 | 15° C | 79% | 1004.3 hPa | - | - | - | - |
| 1777966986 | 14.44° C | 80% | 1004.8 hPa | - | - | - | - |
| 1777966087 | 14.44° C | 79% | 1004.6 hPa | - | - | - | - |
| 1777965187 | 14.44° C | 79% | 1005.1 hPa | - | - | - | - |
| 1777964287 | 14.44° C | 80% | 1004.6 hPa | - | - | - | - |
| 1777963387 | 14.44° C | 81% | 1004.2 hPa | - | - | - | - |
| 1777962486 | 14.44° C | 82% | 1005.2 hPa | - | - | - | - |
| 1777961587 | 13.33° C | 82% | 1005.3 hPa | - | - | - | - |
| 1777960687 | 13.33° C | 83% | 1005.1 hPa | - | - | - | - |
| 1777959787 | 13.33° C | 83% | 1005.1 hPa | - | - | - | - |
| 1777958887 | 13.33° C | 83% | 1005.1 hPa | - | - | - | - |
| 1777957987 | 13.33° C | 83% | 1005 hPa | - | - | - | - |
| 1777957087 | 13.33° C | 82% | 1005 hPa | - | - | - | - |
| 1777956187 | 13.33° C | 82% | 1004.9 hPa | - | - | - | - |
| 1777955287 | 13.33° C | 81% | 1004.9 hPa | - | - | - | - |
| 1777954387 | 13.33° C | 81% | 1005 hPa | - | - | - | - |
| 1777953487 | 13.33° C | 81% | 1005.1 hPa | - | - | - | - |
| 1777952587 | 13.33° C | 81% | 1005.1 hPa | - | - | - | - |
| 1777951687 | 13.33° C | 81% | 1005.2 hPa | - | - | - | - |
* Rain since midnight (hover to see other rain measurements)
** Current wind speed in m/s (hover to see current wind gust speed)